SCP
0 0 0 0 0 0 0 0 0 0 0 0 0 0 0 0 0 0 0 0 0 0 0 0 0 0 0 0 0 1 1 1 1 1 1 1 1 1 1 1 0 0 0 0
0 0 0 0 0 0 0 0 0 0 0 0 0 0 0 0 0 0 0 0 0 0 0 0 0 0 0 0 1 1 1 1 1 1 1 1 1 1 1 1 1 1 0 0
0 0 0 0 0 0 0 0 0 0 0 0 0 0 0 0 0 0 0 0 0 0 0 0 0 1 1 1 1 1 1 1 1 1 1 1 1 1 1 1 1 1 1 1
0 0 0 0 0 0 0 0 0 0 0 0 0 0 0 0 0 0 0 1 1 1 0 0 0 0 1 1 1 1 1 1 1 1 1 1 1 1 1 1 1 1 1 1
0 0 0 0 0 0 0 0 0 0 0 0 0 0 0 0 0 0 0 0 0 0 0 0 0 0 0 0 0 0 0 0 0 0 0 0 0 1 1 1 1 1 1 1
0 0 0 0 0 0 0 0 0 0 0 0 0 0 0 0 0 0 0 0 0 0 0 0 0 0 0 0 0 0 0 0 0 0 0 0 0 0 0 0 1 1 1 1
0 0 0 0 0 0 0 0 0 0 0 0 0 0 0 0 0 0 0 0 0 0 0 0 0 0 0 0 0 0 0 0 0 0 0 0 0 0 0 0 0 0 0 0
0 0 0 0 0 0 0 0 0 0 0 0 0 0 0 0 0 0 0 0 0 0 0 0 0 0 0 0 0 0 0 0 0 0 0 0 0 0 0 0 0 0 0 0
0 0 0 0 0 0 0 0 0 0 0 0 0 0 0 0 0 0 0 0 0 0 0 0 0 0 0 0 0 0 0 0 0 0 0 0 0 0 0 0 0 0 0 0
0 0 0 0 0 0 0 0 0 0 0 0 0 0 0 0 0 0 0 0 0 0 0 0 0 0 0 0 0 0 0 0 0 0 0 0 0 0 0 0 0 0 0 0
0 0 0 0 0 0 0 0 0 0 0 0 0 0 0 0 0 0 0 0 0 0 0 0 0 0 -0 0 0 0 0 0 0 0 0 0 0 0 0 0 0 0 0 0
0 0 0 0 0 0 0 0 0 0 0 0 0 0 0 0 0 0 0 0 0 0 0 0 0 0 0 0 0 0 0 0 0 0 0 0 0 0 0 0 0 0 0 0
0 0 0 0 0 0 0 0 0 0 0 0 0 0 0 0 0 0 0 0 0 0 0 0 0 0 0 0 0 0 0 0 0 0 0 0 0 0 0 0 0 0 0 0
0 0 0 0 0 0 0 0 0 0 0 0 0 0 0 0 0 0 0 0 0 0 0 0 0 0 0 0 0 0 0 0 0 0 0 0 0 0 0 0 0 0 0 0
0 0 0 0 0 0 0 0 0 0 0 0 0 0 0 0 0 0 -0 -0 0 0 0 0 0 0 0 0 0 0 0 0 0 0 0 0 0 0 0 0 0 0 0 0
0 0 0 0 0 0 0 0 0 0 0 0 0 0 0 0 0 0 0 0 0 0 0 0 0 0 0 0 0 0 0 0 0 0 0 0 0 0 0 0 0 0 0 0
0 0 0 0 0 0 0 0 0 0 0 0 0 0 0 0 0 0 0 0 0 0 0 0 0 0 0 0 0 0 0 0 0 0 0 0 0 0 0 0 0 0 0 0
0 0 0 0 0 0 0 0 0 0 0 0 0 0 0 0 0 0 0 0 0 0 0 0 0 0 0 0 0 0 0 0 0 0 0 0 0 0 0 0 0 0 0 0
0 0 0 0 0 0 0 0 0 0 0 0 0 0 0 0 0 0 0 0 0 0 0 0 0 0 0 0 0 0 0 0 0 0 0 0 0 0 0 0 0 0 0 0
0 0 0 0 0 0 0 0 0 0 0 0 0 0 0 0 0 0 0 0 0 0 0 0 0 0 0 0 0 0 0 0 0 0 0 0 0 0 0 0 0 0 0 0
0 0 0 0 0 0 0 0 0 0 0 0 0 0 0 0 0 0 0 0 0 0 0 0 0 0 0 0 0 0 0 0 0 0 0 0 0 0 0 0 0 0 0 0
0 0 0 0 0 0 0 0 0 0 0 0 0 0 0 0 0 0 0 0 0 0 0 0 0 0 0 0 0 0 0 0 0 0 0 0 0 0 0 0 0 0 0 0
0 0 0 0 0 0 0 0 0 0 0 0 0 0 0 0 0 0 0 0 0 0 0 0 0 0 0 0 0 0 0 0 0 0 0 0 0 0 0 0 0 0 0 0
0 0 0 0 0 0 0 0 0 0 0 0 0 0 0 0 0 0 0 0 0 0 0 0 0 0 0 0 0 0 0 0 0 0 0 0 0 0 0 0 0 0 0 0
0 0 0 0 0 0 0 0 0 0 0 0 0 0 0 0 0 0 0 0 0 0 0 0 0 0 0 0 0 0 0 0 0 0 0 0 0 0 0 0 0 0 0 0
0 0 0 0 0 0 0 0 0 0 0 0 0 0 0 0 0 0 0 0 0 0 0 0 0 0 0 0 0 0 0 0 0 0 0 0 0 0 0 0 0 0 0 0
0 0 0 0 0 0 0 0 0 0 0 0 0 0 0 0 0 0 0 0 0 0 0 0 0 0 0 0 0 0 0 0 0 0 0 0 0 0 0 0 0 0 0 0
Wind_Speed
9 4 5 7 7 9 10 10 10 9 8 3 4 3 2 1 2 5 7 9 10 10 9 9 10 10 10 10 10 10 10 11 10 10 9 10 10 10 10 11 11 11 11 12
9 7 8 9 9 10 11 10 11 11 7 6 4 3 3 3 2 4 5 6 7 7 7 7 7 7 7 7 7 8 8 9 8 8 8 9 9 9 9 10 10 11 12 12
9 6 8 12 10 10 9 9 9 9 2 4 5 6 5 5 5 5 5 5 5 5 4 4 4 4 4 3 3 4 4 4 4 5 6 6 7 8 8 9 10 11 12 12
8 6 12 4 3 4 7 7 4 2 3 5 8 8 8 7 7 8 8 8 8 7 8 7 6 6 6 6 5 4 3 2 1 1 2 2 4 5 6 6 7 9 10 11
7 10 11 4 3 3 5 5 3 4 6 10 12 11 10 9 9 10 10 10 10 11 11 10 10 9 10 9 8 7 7 5 4 3 1 1 1 2 3 5 6 7 8 9
7 9 9 0 5 1 5 5 4 6 9 11 11 6 8 9 10 11 11 11 12 12 13 12 11 10 11 11 10 9 8 7 6 5 4 4 3 3 3 4 5 6 7 7
9 9 5 6 5 4 6 3 5 6 8 9 5 7 13 11 11 11 12 12 13 13 13 12 11 11 12 12 11 9 8 8 7 6 5 5 4 4 4 4 4 5 6 7
6 8 2 7 4 2 5 4 4 6 7 9 13 16 14 13 12 11 11 12 12 12 12 10 10 10 11 11 9 8 7 8 7 6 6 5 5 4 4 5 5 5 5 6
2 2 6 2 1 4 2 3 5 7 10 14 16 16 15 13 11 11 10 10 10 11 10 9 9 9 10 8 7 6 6 6 6 6 5 6 5 5 4 4 5 6 6 7
3 2 3 2 1 1 1 4 6 9 12 14 15 15 14 12 11 10 9 9 8 8 8 8 7 7 7 6 5 5 5 4 4 4 4 5 5 5 6 6 7 7 8 8
4 1 1 4 2 2 5 7 10 12 13 14 15 14 13 11 10 9 8 7 7 6 7 7 6 5 5 5 4 4 3 4 4 4 5 5 5 5 5 6 5 7 9 9
4 5 4 4 3 4 7 9 12 14 14 14 13 13 12 10 9 8 7 6 5 5 5 5 4 4 3 3 3 4 4 5 5 5 5 6 6 6 3 6 5 9 10 9
4 4 4 5 6 7 9 11 13 13 14 14 12 11 11 9 8 7 6 5 4 3 3 3 2 2 3 3 3 4 6 6 6 7 7 7 7 8 9 7 7 10 11 11
2 3 6 7 9 11 13 14 14 14 13 12 11 10 9 7 6 5 4 3 3 2 2 2 2 3 3 3 4 5 7 5 6 7 8 8 8 9 9 10 10 9 6 5
5 5 10 12 13 14 14 15 15 14 12 11 9 8 6 5 4 3 2 2 1 0 1 2 3 3 4 4 5 6 7 7 7 8 9 9 9 9 9 11 10 10 10 9
10 13 14 15 15 15 14 14 13 12 10 8 7 5 4 2 2 1 1 0 2 2 3 3 3 4 4 5 6 6 5 2 5 9 9 9 8 9 9 9 10 10 10 10
12 14 14 14 14 14 13 12 11 10 8 7 5 3 1 1 0 0 1 2 2 3 3 3 3 4 4 5 7 7 8 6 5 8 8 8 9 9 9 9 10 10 10 9
11 12 12 12 12 11 10 9 8 7 5 3 2 1 1 1 2 2 2 3 2 1 2 3 4 4 4 6 6 7 7 7 8 8 8 8 9 9 9 9 10 11 10 10
12 12 12 11 9 8 7 6 5 3 2 1 1 2 2 3 2 3 3 3 3 2 3 4 2 3 4 6 7 5 7 8 8 7 8 7 8 8 9 9 10 10 10 10
11 11 10 9 7 6 5 3 2 1 0 1 2 2 3 3 3 3 2 2 3 5 4 4 3 4 5 6 8 6 7 8 8 8 8 8 8 9 9 9 10 10 10 10
8 8 7 5 4 3 3 2 1 1 2 2 3 3 3 3 3 2 3 1 5 4 3 1 2 4 5 6 6 6 7 7 7 7 7 8 8 9 9 9 10 10 10 10
6 5 5 4 4 3 3 2 2 3 3 3 3 3 2 2 2 1 2 3 4 3 2 3 5 7 8 8 5 6 7 7 7 6 7 7 8 8 9 10 9 9 9 10
4 4 4 5 4 4 3 2 2 3 3 3 3 3 3 4 3 3 2 4 4 3 3 7 7 6 10 5 5 6 7 7 7 7 7 8 8 8 8 10 9 9 9 9
3 4 4 4 4 4 4 4 3 3 3 2 2 2 3 2 2 3 5 7 5 3 6 7 4 6 8 4 5 6 7 7 7 7 7 7 7 8 8 9 9 9 9 11
4 4 4 5 5 4 4 4 3 2 3 2 2 3 3 3 3 4 5 6 5 2 5 5 1 5 4 6 6 6 6 7 7 7 7 7 8 8 8 8 9 9 9 9
4 4 4 4 4 4 5 4 4 3 3 2 2 2 3 3 4 4 4 5 6 4 3 3 3 2 5 6 6 6 6 6 6 7 8 8 9 9 9 9 12 9 9 9
4 3 3 3 3 4 4 4 3 3 2 2 2 2 3 3 3 4 4 4 4 4 4 3 4 5 5 5 6 6 6 6 7 7 7 8 8 8 9 11 9 9 9 10
Wind_Direction
258 258 245 246 234 222 238 266 281 291 291 341 43 26 18 331 196 186 184 189 195 196 195 200 204 209 213 217 214 213 213 214 216 217 216 216 214 213 212 213 217 219 223 226
236 232 240 250 248 242 246 258 268 277 287 65 72 66 56 55 110 147 157 168 177 183 186 190 197 204 208 213 212 208 216 220 217 215 212 214 216 216 217 220 224 225 227 230
243 223 242 247 247 247 248 251 264 278 6 98 96 73 58 58 79 91 98 107 119 129 134 140 148 158 161 170 180 185 198 212 212 218 217 219 222 223 224 226 228 230 233 235
248 227 248 279 44 286 271 266 266 272 112 116 110 96 72 61 73 82 84 84 83 87 89 89 96 105 106 108 110 112 110 105 110 233 238 236 237 241 244 244 243 242 243 243
246 244 249 211 174 237 257 260 220 190 146 137 137 126 87 70 74 78 81 81 78 76 78 76 78 84 90 87 83 81 75 66 55 46 32 342 303 292 279 270 263 260 257 256
238 258 263 84 101 142 257 237 151 167 163 162 176 174 107 95 89 84 81 82 83 81 79 75 73 78 83 81 76 68 65 62 58 52 49 39 22 351 325 294 281 278 276 274
238 249 255 89 120 195 246 53 122 164 170 176 168 92 115 112 99 93 89 87 86 83 78 74 73 74 74 70 65 59 57 57 51 45 47 44 31 14 346 320 311 301 298 291
237 247 223 112 166 248 40 80 142 156 153 133 114 115 120 117 111 105 99 92 88 83 79 74 72 74 73 66 63 61 59 56 48 35 24 32 24 10 353 333 311 300 300 297
255 42 73 115 66 65 75 125 144 146 137 134 132 131 127 123 119 112 105 97 91 90 86 79 72 72 74 69 60 58 57 52 43 36 27 16 1 356 342 338 325 326 322 317
261 123 92 103 126 144 157 144 143 139 138 139 135 133 131 128 125 119 112 106 104 101 96 89 81 75 73 66 57 49 41 32 22 11 3 11 341 343 342 340 338 334 326 320
255 344 125 93 70 139 141 138 135 133 135 135 134 134 132 130 128 124 119 114 110 106 102 97 87 76 66 56 38 26 16 357 344 346 357 330 329 330 323 331 344 317 320 319
341 29 352 49 69 130 137 136 135 133 129 128 130 130 129 125 122 121 119 118 114 106 96 88 81 75 58 33 11 347 340 340 334 333 339 324 322 316 262 260 242 237 249 272
343 13 49 87 99 117 123 124 125 125 124 122 121 121 120 119 120 120 120 117 111 101 88 70 48 35 27 8 347 338 329 330 326 327 325 319 318 316 315 297 245 239 240 243
79 113 104 101 103 108 111 113 111 109 108 110 111 112 114 116 119 124 119 110 100 90 62 37 13 13 6 347 328 320 313 319 308 313 315 313 313 313 311 312 313 311 291 256
72 89 107 108 107 107 109 110 108 105 103 103 105 108 111 114 119 116 109 103 96 47 24 5 358 6 354 332 322 317 314 323 330 320 310 309 311 311 310 311 311 312 313 311
99 105 109 109 107 107 107 105 102 100 99 98 93 87 89 101 115 115 106 312 305 340 356 346 346 352 344 331 320 307 305 317 307 309 308 315 317 315 313 313 312 313 313 318
112 112 112 110 108 105 102 100 98 97 94 89 84 77 62 36 324 309 306 316 318 322 327 336 345 348 340 334 321 317 320 322 302 301 320 325 322 318 317 317 317 318 316 329
97 100 103 107 107 105 102 102 104 107 110 121 148 183 225 257 295 317 313 311 299 299 5 13 9 346 348 353 336 325 324 325 327 329 328 332 328 319 322 323 321 319 318 320
94 96 98 98 100 101 101 104 110 114 124 163 220 247 265 276 289 299 305 306 308 327 38 42 359 316 4 18 337 317 328 330 331 334 332 334 321 327 330 328 324 321 320 319
88 88 87 85 83 87 89 87 84 86 63 269 271 288 300 312 310 306 309 322 16 26 33 21 343 10 7 18 335 333 342 340 341 342 341 338 335 334 333 329 326 324 324 322
91 88 82 73 62 59 57 42 13 335 323 303 298 304 313 317 313 314 304 344 70 45 35 63 10 19 10 349 311 343 357 356 350 348 343 339 335 333 331 329 327 325 324 322
74 69 61 45 24 16 17 357 342 331 330 328 323 322 315 309 320 12 38 33 64 34 348 39 43 31 354 322 350 9 7 0 352 347 342 339 335 332 331 331 329 327 325 323
50 33 19 10 359 348 342 339 344 345 347 343 340 341 340 350 346 341 36 57 60 45 37 54 44 9 324 331 15 9 8 4 355 349 347 344 340 336 335 333 332 330 328 329
14 0 355 348 339 330 335 341 343 345 337 325 354 7 339 339 34 46 67 87 69 56 71 74 34 339 312 4 17 14 15 8 0 355 352 348 344 342 339 337 336 334 334 334
352 344 345 335 323 331 334 314 305 313 315 350 23 34 21 33 47 61 76 94 98 93 96 106 123 312 351 31 25 19 19 16 2 351 354 350 347 345 343 342 340 337 337 337
334 325 342 329 330 324 322 326 328 339 346 360 21 38 54 65 79 92 101 106 104 91 72 67 50 15 34 36 33 22 17 14 4 0 359 353 352 351 349 348 345 345 342 342
291 293 290 300 320 332 330 330 330 338 348 10 42 48 58 70 84 95 97 96 92 77 65 51 41 37 36 34 33 28 24 18 11 6 1 360 358 354 352 351 349 348 347 348